Showing default

NIMBUS 4, 4362

Orbit data source: Space-Track

NIMBUS 4, 4362 is a payload satellite owned by GSFC (US) in SSO that was launched on Wed, 08 Apr 1970 UTC via a THORAD SLV-2G AGENA D launch vehicle from the Air Force Western Test Range (AFWTR). Payloads include a variety of satellites, spacecraft, and rockets equipped with specific instruments for various scientific and technological missions. These include communications satellites like Starlink; space stations such as the ISS; scientific satellites like the Hubble; Earth observation satellites from companies like Planet Labs, Umbra, and HawkEye 360; GPS; miniature CubeSats for education and research; and military/defense satellites.

Loading next visibility...
NIMBUS 4 details
Identifier
4362, 1970-025A
Orbit
SSO
Last TLE update19 hours ago
Origin
Flag of USGSFC (US)
ManufacturerGE/MSVD
MissionNon-operational Civil Weather
Bus & MotorNIMBUS, Unknown motor
Mass619 kg wet, 619 kg dry
Launch date (UTC)
1970-04-08 (55 years ago)
Launch vehicle
THORAD SLV-2G AGENA D
Launch site
Air Force Western Test Range (AFWTR)
Object type
Payload
Rocket body
Debris
Shape & HBRCone + 2 Pan, 3.35 m
Radar Cross Section2.947 m², Large (>1 m²)

Expand to show TLE details & history

TLE from 19 hours ago
0 NIMBUS 4
1 04362U 70025A   25023.73453354 -.00000001  00000-0  74184-4 0  9995
2 04362  99.9563 304.9513 0007696 154.4769 260.4845 13.44717730688375
Epoch: 2025-01-23T17:37Z
Definitive object data (Epoch: 2025-01-23T17:37:43.697Z)
Latitude53.76371°
Longitude-96.57484°
Altitude1,101.428 km
Speed7.306 km/s
True Right ascension19h 24m 39s
True Declination53° 36' 26"
Sunlit
Object was in daylight at TLE epoch
Visualization TLE readout
Latitude-57.02452°
Longitude-66.38633°
Altitude1,118.688 km
Speed7.29 km/s
Apparent Right ascension23h 55m 55s
Apparent Declination-54° 12' 27"
Sunlit
Object is in daylight
Visualization observer readout
Local Sidereal Time13:58:28
Azimuth135.115° SSE
Elevation-65.018°
Doppler factor1
Orbital elements
Apogee altitude1,094.825 km
Perigee altitude1,083.332 km
Semi-major axis7,467.215 km
Eccentricity0.0007696
Inclination99.9563°
RAAN304.9513°
Arg. of periapsis154.4769°
True anomaly260.39754°
Mean anomaly260.4845°
Eccentric anomaly260.44102°
Mean motion3.36361 °/min
BSTAR0.000074184
Orbital period107.03 mins
Loading maneuver chart data...

NIMBUS 4 Visibility forecast

Observer location: undefined°, undefined

Span
Click to sort rows by Start time (UTC) header in descending order
Start Az.
Max El. time (UTC)
Max El. Az.
Max El.
End time (UTC)
End Az.
7 mins2025-01-24 16:45:34.716Z87.455° E2025-01-24 16:48:34.716Z58.706° ENE15.851°2025-01-24 16:52:34.716Z20.772° NNE
11 mins2025-01-24 18:28:34.716Z163.213° S2025-01-24 18:33:34.716Z341.802° N44.959°2025-01-24 18:39:34.716Z344.926° N
4 mins2025-01-24 20:18:34.716Z259.126° W2025-01-24 20:19:34.716Z268.825° W13.29°2025-01-24 20:22:34.716Z296.665° NW
11 mins2025-01-25 07:27:34.716Z18.47° NNE2025-01-25 07:32:34.716Z68.277° E44.315°2025-01-25 07:38:34.716Z191.508° SSW
7 mins2025-01-25 09:14:34.716Z334.303° NNW2025-01-25 09:17:34.716Z303.365° NW17.756°2025-01-25 09:21:34.716Z264.072° W
|